User: anonymous   Login
Location: Conjunto Santa Maria
(19.9513°S, 43.9599°W)
Time: 15:46:44
(UTC+00:00)
Language:

Centaur D-1A AC-31 - Orbit

View from above orbital plane
View from above orbital plane
View from above satellite
View from above satellite

Ground track
Ground track

The orbit data is extracted from the following two-line orbital elements,

1 06797U 73058B   21109.04272345 -.00000009  00000-0  51324-4 0  9991
2 06797  27.5594  93.9978 7232652 339.6006   2.1778  2.21646842385491
Epoch (UTC): 19 April 2021 01:01:31
Eccentricity: 0.7232652
inclination: 27.5594°
perigee height: 498 km
apogee height: 36441 km
right ascension of ascending node: 93.9978°
argument of perigee: 339.6006°
revolutions per day: 2.21646842
mean anomaly at epoch: 2.1778°
orbit number at epoch: 38549

The dashed part of the orbit path shows where the satellite is in the earth's shadow,  

DLR